シェパード彗星

P/2020 B4 ( Sheppard )

English version
Home page
Updated on May 29, 2022

---------------------------------------------------------------------

・ プロフィール

発見日 2020年1月26日
発見光度 22.5等
発見者 Scott S. Sheppard (Cerro Tololo 4-m Blanco telescope)

・ 軌道要素

Epoch 2022 Jan. 21.0 TT = JDT 2459600.5
T 2021 Nov. 22.54378 TT                                 Rudenko
q   6.4399572            (2000.0)            P               Q
n   0.04381973     Peri.  342.28871     -0.97846459     -0.20534751
a   7.9681265      Node   185.98025     +0.20521170     -0.95678359
e   0.1917853      Incl.   11.60760     +0.02225320     -0.20590670
P  22.5
From 17 observations 2019 Nov. 25-2022 Apr. 9, mean residual 0".2.

・ 光度変化

        m1 = 10.0 + 5 logΔ + 10.0 log r

---------------------------------------------------------------------

軌道要素はM.P.E.C. 2022-H04に掲載されたものです。
光度グラフはComet for Windowsで作成したものです。

---------------------------------------------------------------------

Copyright(C) Seiichi Yoshida (comet@aerith.net). All rights reserved.